DLH54T LFPG-EDDF

Flight info

Callsign DLH54T
Flight time 0h 51m
Altitude 23000
Route RANUX DCT VALEK DCT LIPNI UN858 LIMGO Z111 RAMOB IMCOM1D
Aircraft A320/M-SDE3FGHIRWY/LB1

Departure

Time 2026-05-08 20:44
Airport Charles de Gaulle International Airport (LFPG)

Arrival

Time 2026-05-08 21:35
Airport Frankfurt Main Airport (EDDF)
Time Latitude Longitude Altitude Speed Heading
2026-05-08 20:15 49.01645 2.53906 354 ft 0 kts 192°
2026-05-08 20:18 49.01646 2.53906 354 ft 0 kts 192°
2026-05-08 20:30 49.01656 2.53909 354 ft 2 kts 189°
2026-05-08 20:30 49.01672 2.53914 364 ft 2 kts 190°
2026-05-08 20:31 49.01689 2.53919 363 ft 2 kts 191°
2026-05-08 20:31 49.01705 2.53924 361 ft 2 kts 191°
2026-05-08 20:31 49.01721 2.53929 363 ft 2 kts 191°
2026-05-08 20:31 49.01737 2.53933 362 ft 2 kts 191°
2026-05-08 20:32 49.01753 2.53938 362 ft 2 kts 191°
2026-05-08 20:32 49.01770 2.53943 356 ft 2 kts 193°
2026-05-08 20:32 49.01786 2.53950 364 ft 2 kts 230°
2026-05-08 20:32 49.01789 2.53954 361 ft 0 kts 258°
2026-05-08 20:36 49.01789 2.53936 354 ft 7 kts 272°
2026-05-08 20:36 49.01791 2.53780 356 ft 21 kts 265°
2026-05-08 20:36 49.01778 2.53541 358 ft 23 kts 265°
2026-05-08 20:36 49.01764 2.53288 354 ft 24 kts 264°
2026-05-08 20:37 49.01750 2.53028 354 ft 25 kts 266°
2026-05-08 20:37 49.01738 2.52788 359 ft 18 kts 265°
2026-05-08 20:37 49.01728 2.52598 357 ft 18 kts 266°
2026-05-08 20:37 49.01716 2.52412 361 ft 17 kts 265°
2026-05-08 20:38 49.01707 2.52240 354 ft 12 kts 265°
2026-05-08 20:38 49.01734 2.52147 354 ft 9 kts 340°
2026-05-08 20:38 49.01812 2.52133 359 ft 12 kts 354°
2026-05-08 20:38 49.01905 2.52121 355 ft 14 kts 355°
2026-05-08 20:39 49.01998 2.52109 355 ft 13 kts 355°
2026-05-08 20:39 49.02010 2.52108 355 ft 0 kts 356°
2026-05-08 20:41 49.02034 2.52106 355 ft 11 kts 357°
2026-05-08 20:41 49.02106 2.52174 355 ft 14 kts 68°
2026-05-08 20:42 49.02112 2.52222 353 ft 0 kts 82°
2026-05-08 20:42 49.02113 2.52226 353 ft 3 kts 82°
2026-05-08 20:43 49.02132 2.52573 359 ft 69 kts 85°
2026-05-08 20:43 49.02189 2.53635 353 ft 129 kts 85°
2026-05-08 20:43 49.02279 2.55245 364 ft 174 kts 85°
2026-05-08 20:43 49.02400 2.57120 903 ft 178 kts 84°
2026-05-08 20:44 49.02505 2.59024 1659 ft 180 kts 85°
2026-05-08 20:44 49.02601 2.60975 2204 ft 195 kts 85°
2026-05-08 20:44 49.02709 2.63161 2617 ft 219 kts 85°
2026-05-08 20:44 49.02833 2.65606 3084 ft 243 kts 85°
2026-05-08 20:45 49.02968 2.68250 3777 ft 255 kts 86°
2026-05-08 20:45 49.03061 2.70050 4344 ft 259 kts 86°
2026-05-08 20:45 49.03251 2.73753 5497 ft 265 kts 86°
2026-05-08 20:45 49.03389 2.76577 6322 ft 271 kts 86°
2026-05-08 20:46 49.03525 2.79471 7129 ft 276 kts 86°
2026-05-08 20:46 49.03662 2.82417 7905 ft 282 kts 87°
2026-05-08 20:46 49.03801 2.85421 8708 ft 287 kts 86°
2026-05-08 20:46 49.03945 2.88485 9497 ft 293 kts 86°
2026-05-08 20:47 49.04092 2.91607 10244 ft 299 kts 86°
2026-05-08 20:47 49.04264 2.94871 10548 ft 321 kts 85°
2026-05-08 20:47 49.04504 2.98379 10756 ft 344 kts 84°
2026-05-08 20:47 49.04789 3.02120 10996 ft 364 kts 84°
2026-05-08 20:48 49.05094 3.05992 11582 ft 371 kts 84°
2026-05-08 20:48 49.05397 3.09863 12248 ft 375 kts 84°
2026-05-08 20:48 49.05699 3.13829 12951 ft 379 kts 84°
2026-05-08 20:48 49.05997 3.17836 13656 ft 382 kts 84°
2026-05-08 20:49 49.06291 3.21886 14291 ft 386 kts 84°
2026-05-08 20:49 49.06581 3.25972 14925 ft 389 kts 84°
2026-05-08 20:49 49.06870 3.30073 15542 ft 391 kts 84°
2026-05-08 20:49 49.07163 3.34214 16174 ft 394 kts 84°
2026-05-08 20:50 49.07455 3.38369 16794 ft 396 kts 84°
2026-05-08 20:50 49.07746 3.42562 17411 ft 399 kts 84°
2026-05-08 20:50 49.08039 3.46780 18021 ft 402 kts 84°
2026-05-08 20:50 49.08335 3.51037 18583 ft 404 kts 84°
2026-05-08 20:51 49.08631 3.55320 19088 ft 407 kts 83°
2026-05-08 20:51 49.08925 3.59632 19589 ft 410 kts 83°
2026-05-08 20:51 49.09220 3.63982 20071 ft 414 kts 83°
2026-05-08 20:51 49.09515 3.68371 20547 ft 417 kts 83°
2026-05-08 20:52 49.09812 3.72786 21012 ft 420 kts 82°
2026-05-08 20:52 49.10110 3.77239 21464 ft 424 kts 82°
2026-05-08 20:52 49.10409 3.81733 21930 ft 427 kts 82°
2026-05-08 20:52 49.10708 3.86249 22354 ft 430 kts 82°
2026-05-08 20:53 49.11008 3.90807 22774 ft 433 kts 82°
2026-05-08 20:53 49.11310 3.95393 23040 ft 435 kts 81°
2026-05-08 20:53 49.11613 4.00039 23086 ft 445 kts 82°
2026-05-08 20:53 49.11919 4.04782 23085 ft 452 kts 82°
2026-05-08 20:54 49.12221 4.09565 23085 ft 453 kts 82°
2026-05-08 20:54 49.12521 4.14359 23088 ft 454 kts 82°
2026-05-08 20:54 49.12821 4.19154 23086 ft 453 kts 82°
2026-05-08 20:54 49.13121 4.23948 23083 ft 453 kts 82°
2026-05-08 20:55 49.13420 4.28734 23086 ft 453 kts 82°
2026-05-08 20:55 49.13768 4.33512 23078 ft 451 kts 78°
2026-05-08 20:55 49.14502 4.38149 23079 ft 448 kts 69°
2026-05-08 20:55 49.15615 4.42502 23082 ft 446 kts 65°
2026-05-08 20:56 49.16813 4.46883 23085 ft 446 kts 65°
2026-05-08 20:56 49.18003 4.51259 23088 ft 446 kts 65°
2026-05-08 20:56 49.19190 4.55649 23095 ft 446 kts 65°
2026-05-08 20:56 49.19987 4.58604 23092 ft 446 kts 65°
2026-05-08 20:57 49.21551 4.64406 23096 ft 445 kts 66°
2026-05-08 20:57 49.22726 4.68775 23097 ft 445 kts 66°
2026-05-08 20:57 49.23900 4.73151 23099 ft 444 kts 66°
2026-05-08 20:57 49.25071 4.77529 23097 ft 444 kts 66°
2026-05-08 20:58 49.26240 4.81902 23100 ft 444 kts 66°
2026-05-08 20:58 49.27406 4.86263 23096 ft 443 kts 66°
2026-05-08 20:58 49.28575 4.90636 23094 ft 443 kts 66°
2026-05-08 20:58 49.29738 4.95006 23094 ft 443 kts 66°
2026-05-08 20:59 49.30897 4.99374 23092 ft 443 kts 67°
2026-05-08 20:59 49.32056 5.03744 23090 ft 442 kts 67°
2026-05-08 20:59 49.33213 5.08111 23087 ft 442 kts 67°
2026-05-08 20:59 49.34369 5.12478 23087 ft 442 kts 67°
2026-05-08 21:00 49.35527 5.16848 23089 ft 442 kts 67°
2026-05-08 21:00 49.36681 5.21225 23087 ft 442 kts 67°
2026-05-08 21:00 49.37820 5.25572 23086 ft 442 kts 67°
2026-05-08 21:00 49.38974 5.29982 23084 ft 442 kts 67°
2026-05-08 21:01 49.40122 5.34363 23087 ft 443 kts 67°
2026-05-08 21:01 49.41270 5.38746 23082 ft 442 kts 67°
2026-05-08 21:01 49.42414 5.43134 23078 ft 443 kts 68°
2026-05-08 21:01 49.43556 5.47529 23089 ft 443 kts 68°
2026-05-08 21:02 49.44691 5.51921 23083 ft 443 kts 68°
2026-05-08 21:02 49.45826 5.56324 23080 ft 443 kts 68°
2026-05-08 21:02 49.46961 5.60728 23085 ft 443 kts 68°
2026-05-08 21:02 49.48100 5.65128 23086 ft 443 kts 68°
2026-05-08 21:03 49.49239 5.69527 23086 ft 443 kts 68°
2026-05-08 21:03 49.50378 5.73945 23080 ft 444 kts 68°
2026-05-08 21:03 49.51514 5.78362 23077 ft 444 kts 68°
2026-05-08 21:03 49.52627 5.82793 23089 ft 444 kts 69°
2026-05-08 21:04 49.53708 5.87240 23086 ft 445 kts 69°
2026-05-08 21:04 49.54789 5.91713 23086 ft 445 kts 69°
2026-05-08 21:04 49.55873 5.96174 23095 ft 445 kts 69°
2026-05-08 21:04 49.56969 6.00637 23090 ft 446 kts 69°
2026-05-08 21:05 49.58072 6.05101 23087 ft 446 kts 69°
2026-05-08 21:05 49.59176 6.09568 23085 ft 446 kts 69°
2026-05-08 21:05 49.60262 6.13978 23089 ft 446 kts 69°
2026-05-08 21:05 49.61374 6.18517 23085 ft 446 kts 69°
2026-05-08 21:06 49.62450 6.22931 23091 ft 447 kts 69°
2026-05-08 21:06 49.63582 6.27398 23095 ft 447 kts 65°
2026-05-08 21:06 49.65052 6.31613 23086 ft 446 kts 58°
2026-05-08 21:06 49.66644 6.35722 23091 ft 447 kts 59°
2026-05-08 21:07 49.68235 6.39846 23092 ft 447 kts 59°
2026-05-08 21:07 49.69821 6.43974 23092 ft 447 kts 59°
2026-05-08 21:07 49.71405 6.48108 23097 ft 447 kts 59°
2026-05-08 21:07 49.73032 6.52211 23092 ft 447 kts 55°
2026-05-08 21:08 49.74893 6.56049 23095 ft 447 kts 52°
2026-05-08 21:08 49.76781 6.59872 23101 ft 447 kts 52°
2026-05-08 21:08 49.78667 6.63701 23102 ft 447 kts 52°
2026-05-08 21:08 49.80549 6.67530 23099 ft 447 kts 52°
2026-05-08 21:09 49.82430 6.71363 23101 ft 447 kts 52°
2026-05-08 21:09 49.84307 6.75199 23104 ft 447 kts 52°
2026-05-08 21:09 49.86185 6.79044 23105 ft 447 kts 52°
2026-05-08 21:09 49.88067 6.82894 23101 ft 447 kts 52°
2026-05-08 21:10 49.89943 6.86736 23103 ft 448 kts 52°
2026-05-08 21:10 49.91825 6.90595 23103 ft 447 kts 52°
2026-05-08 21:10 49.93701 6.94445 23102 ft 447 kts 52°
2026-05-08 21:10 49.95576 6.98301 23101 ft 447 kts 53°
2026-05-08 21:11 49.97493 7.02094 23111 ft 447 kts 46°
2026-05-08 21:11 49.99010 7.04259 23118 ft 447 kts 36°
2026-05-08 21:11 50.01681 7.06671 23113 ft 445 kts 21°
2026-05-08 21:11 50.04657 7.07927 23115 ft 444 kts
2026-05-08 21:12 50.07731 7.07951 23118 ft 442 kts 351°
2026-05-08 21:12 50.11603 7.06130 23120 ft 440 kts 332°
2026-05-08 21:12 50.13409 7.04567 23122 ft 439 kts 329°
2026-05-08 21:12 50.16057 7.02187 23119 ft 440 kts 329°
2026-05-08 21:13 50.18703 6.99789 23117 ft 440 kts 329°
2026-05-08 21:13 50.21346 6.97381 23117 ft 440 kts 329°
2026-05-08 21:13 50.23984 6.94970 23120 ft 440 kts 329°
2026-05-08 21:13 50.26630 6.92552 23117 ft 440 kts 329°
2026-05-08 21:14 50.29241 6.90171 23119 ft 440 kts 329°
2026-05-08 21:14 50.31883 6.87768 23116 ft 440 kts 329°
2026-05-08 21:14 50.34536 6.85373 23120 ft 440 kts 331°
2026-05-08 21:14 50.37392 6.83544 22881 ft 435 kts 344°
2026-05-08 21:15 50.40365 6.82929 22209 ft 431 kts
2026-05-08 21:15 50.43312 6.83632 21532 ft 428 kts 17°
2026-05-08 21:15 50.46000 6.85558 20879 ft 425 kts 32°
2026-05-08 21:15 50.48223 6.88483 20243 ft 422 kts 48°
2026-05-08 21:16 50.49908 6.92300 19615 ft 420 kts 63°
2026-05-08 21:16 50.50878 6.96588 19027 ft 417 kts 78°
2026-05-08 21:16 50.51111 7.01093 18465 ft 413 kts 94°
2026-05-08 21:16 50.50606 7.05502 17841 ft 410 kts 109°
2026-05-08 21:17 50.49408 7.09512 17257 ft 405 kts 123°
2026-05-08 21:17 50.47616 7.12889 16699 ft 400 kts 138°
2026-05-08 21:17 50.45376 7.15421 16145 ft 395 kts 153°
2026-05-08 21:17 50.42887 7.17206 15592 ft 392 kts 157°
2026-05-08 21:18 50.40397 7.18895 15067 ft 389 kts 158°
2026-05-08 21:18 50.37921 7.20561 14560 ft 385 kts 158°
2026-05-08 21:18 50.35469 7.22211 14056 ft 382 kts 158°
2026-05-08 21:18 50.33038 7.23846 13509 ft 379 kts 158°
2026-05-08 21:19 50.30631 7.25469 12904 ft 376 kts 158°
2026-05-08 21:19 50.28238 7.27083 12291 ft 373 kts 158°
2026-05-08 21:19 50.25863 7.28684 11689 ft 371 kts 158°
2026-05-08 21:19 50.23571 7.30512 11245 ft 370 kts 149°
2026-05-08 21:20 50.21509 7.32925 11110 ft 372 kts 139°
2026-05-08 21:20 50.19728 7.35865 11134 ft 374 kts 129°
2026-05-08 21:20 50.18283 7.39241 11066 ft 373 kts 120°
2026-05-08 21:20 50.17236 7.42854 10516 ft 370 kts 111°
2026-05-08 21:21 50.16149 7.46460 10000 ft 365 kts 125°
2026-05-08 21:21 50.14559 7.49470 9502 ft 358 kts 133°
2026-05-08 21:21 50.12915 7.52344 8973 ft 353 kts 132°
2026-05-08 21:21 50.11287 7.55173 8456 ft 348 kts 133°
2026-05-08 21:22 50.09678 7.57959 7934 ft 343 kts 133°
2026-05-08 21:22 50.08092 7.60701 7436 ft 339 kts 133°
2026-05-08 21:22 50.06543 7.63372 6929 ft 325 kts 132°
2026-05-08 21:22 50.05062 7.65923 6440 ft 310 kts 132°
2026-05-08 21:23 50.03650 7.68355 5918 ft 296 kts 132°
2026-05-08 21:23 50.02296 7.70690 5406 ft 284 kts 132°
2026-05-08 21:23 50.00997 7.72925 4918 ft 274 kts 131°
2026-05-08 21:23 49.99738 7.75096 4383 ft 266 kts 130°
2026-05-08 21:24 49.98805 7.77494 4040 ft 258 kts 108°
2026-05-08 21:24 49.98430 7.80217 3992 ft 258 kts 99°
2026-05-08 21:24 49.98128 7.82968 3998 ft 258 kts 99°
2026-05-08 21:24 49.97827 7.85713 4003 ft 258 kts 99°
2026-05-08 21:25 49.97524 7.88468 4009 ft 259 kts 99°
2026-05-08 21:25 49.97221 7.91219 4001 ft 258 kts 99°
2026-05-08 21:25 49.96920 7.93971 4003 ft 259 kts 99°
2026-05-08 21:25 49.96621 7.96707 3995 ft 252 kts 99°
2026-05-08 21:26 49.96336 7.99301 3999 ft 235 kts 99°
2026-05-08 21:26 49.96067 8.01752 4001 ft 228 kts 99°
2026-05-08 21:26 49.95833 8.03897 4008 ft 227 kts 99°
2026-05-08 21:26 49.95571 8.06272 4008 ft 227 kts 99°
2026-05-08 21:27 49.95303 8.08688 4007 ft 227 kts 100°
2026-05-08 21:27 49.95041 8.11022 4006 ft 213 kts 99°
2026-05-08 21:27 49.94795 8.13215 4002 ft 200 kts 99°
2026-05-08 21:27 49.94567 8.15267 4032 ft 185 kts 99°
2026-05-08 21:28 49.94375 8.17204 4024 ft 179 kts 93°
2026-05-08 21:28 49.94557 8.19090 3998 ft 176 kts 75°
2026-05-08 21:28 49.94909 8.20795 4000 ft 157 kts 72°
2026-05-08 21:28 49.95263 8.22333 4002 ft 148 kts 71°
2026-05-08 21:29 49.95613 8.23811 4004 ft 145 kts 70°
2026-05-08 21:29 49.95965 8.25273 3999 ft 145 kts 70°
2026-05-08 21:29 49.96319 8.26736 3898 ft 144 kts 70°
2026-05-08 21:29 49.96670 8.28190 3739 ft 144 kts 70°
2026-05-08 21:30 49.97021 8.29637 3566 ft 143 kts 70°
2026-05-08 21:30 49.97369 8.31077 3382 ft 143 kts 71°
2026-05-08 21:30 49.97717 8.32513 3181 ft 141 kts 71°
2026-05-08 21:30 49.98063 8.33941 2995 ft 141 kts 71°
2026-05-08 21:31 49.98407 8.35366 2805 ft 140 kts 71°
2026-05-08 21:31 49.98746 8.36766 2621 ft 139 kts 71°
2026-05-08 21:31 49.99083 8.38166 2440 ft 138 kts 71°
2026-05-08 21:31 49.99420 8.39557 2248 ft 137 kts 71°
2026-05-08 21:32 49.99747 8.40917 2058 ft 136 kts 71°
2026-05-08 21:32 50.00079 8.42291 1886 ft 136 kts 71°
2026-05-08 21:32 50.00409 8.43662 1695 ft 136 kts 70°
2026-05-08 21:32 50.00740 8.45036 1509 ft 136 kts 70°
2026-05-08 21:33 50.01071 8.46411 1323 ft 136 kts 70°
2026-05-08 21:33 50.01404 8.47796 1140 ft 138 kts 68°
2026-05-08 21:33 50.01739 8.49193 945 ft 139 kts 69°
2026-05-08 21:33 50.02075 8.50586 773 ft 138 kts 68°
2026-05-08 21:34 50.02412 8.51977 585 ft 137 kts 68°
2026-05-08 21:34 50.02741 8.53363 410 ft 136 kts 68°
2026-05-08 21:34 50.03050 8.54645 356 ft 108 kts 70°
2026-05-08 21:34 50.03254 8.55499 355 ft 65 kts 70°
2026-05-08 21:35 50.03384 8.56049 360 ft 44 kts 67°
2026-05-08 21:35 50.03543 8.56381 361 ft 31 kts 40°
2026-05-08 21:35 50.03623 8.56483 364 ft 0 kts 40°
2026-05-08 21:36 50.03623 8.56484 364 ft 0 kts 40°
2026-05-08 21:36 50.03674 8.56548 362 ft 16 kts 39°
2026-05-08 21:36 50.03772 8.56643 361 ft 18 kts 19°
2026-05-08 21:36 50.03925 8.56693 367 ft 18 kts 11°
2026-05-08 21:37 50.03935 8.56697 367 ft 1 kts 11°
2026-05-08 21:37 50.04017 8.56723 360 ft 21 kts 12°
2026-05-08 21:37 50.04161 8.56768 361 ft 19 kts 12°
2026-05-08 21:37 50.04296 8.56813 361 ft 20 kts 12°
2026-05-08 21:38 50.04440 8.56854 363 ft 22 kts
2026-05-08 21:38 50.04577 8.56901 365 ft 17 kts 15°
2026-05-08 21:38 50.04677 8.56950 364 ft 16 kts 26°
2026-05-08 21:38 50.04765 8.57017 361 ft 11 kts 34°
2026-05-08 21:39 50.04762 8.57098 366 ft 6 kts 120°
2026-05-08 21:39 50.04746 8.57141 363 ft 0 kts 120°